Wind_Speed
14 15 15 15 15 16 16 15 15 14 15 15 15 16 18 19 19 7 11 2 6 5 6 5 6 10 6 8 7 7 4 6 10 13 12 7 13 7 4 10 6 5 9 24 30
15 16 16 16 16 17 16 16 15 15 15 15 15 17 19 20 15 16 10 9 8 10 9 10 8 6 10 10 4 5 6 14 8 4 10 10 5 9 11 10 10 9 21 28 32
16 16 16 17 17 18 17 16 15 15 15 15 15 16 18 17 11 7 7 10 9 10 10 5 6 12 12 8 5 10 2 13 6 9 10 11 9 7 9 9 14 13 19 22 24
17 17 18 18 18 18 17 17 16 15 15 14 15 16 18 5 4 6 7 12 10 9 12 7 8 9 7 6 5 9 5 4 13 6 5 10 11 9 7 11 12 18 19 22 22
19 18 20 20 19 19 19 18 17 16 15 14 13 14 8 9 4 4 10 13 10 10 13 8 7 10 12 5 5 12 5 2 6 8 4 7 4 12 10 11 14 18 19 21 21
20 20 21 21 20 20 20 18 18 17 15 14 12 11 7 14 3 6 11 12 12 13 7 11 5 6 7 12 6 4 7 4 5 10 6 6 11 8 12 12 15 17 18 19 20
22 21 22 22 20 21 21 19 19 17 15 12 10 5 11 14 1 8 13 13 13 13 7 2 7 12 6 11 4 10 14 12 12 10 13 7 14 14 14 14 16 16 16 17 18
23 23 23 23 22 22 21 20 18 15 13 9 6 6 8 5 5 10 13 12 11 9 6 3 8 12 11 7 14 15 18 5 12 14 11 11 13 13 15 15 15 16 15 15 17
23 24 23 24 24 23 21 21 14 9 4 3 5 9 15 6 11 13 15 16 14 9 5 5 11 11 9 15 14 11 21 19 13 5 6 18 11 13 12 14 14 15 16 16 16
24 26 24 24 23 23 21 15 8 4 3 6 12 8 14 14 14 15 17 14 13 10 9 10 7 11 12 15 10 9 18 8 9 11 7 3 10 15 11 12 16 14 15 16 17
25 26 26 23 23 21 18 7 5 7 16 14 8 18 8 6 11 15 17 14 11 11 14 9 10 15 16 22 10 19 2 10 6 3 10 5 3 1 10 6 8 17 16 16 17
26 26 26 25 23 18 8 7 7 7 9 18 19 13 3 10 12 17 20 14 14 14 12 5 14 6 7 7 11 9 11 10 7 7 14 7 7 2 7 7 3 8 15 17 17
27 27 27 25 21 8 11 12 4 9 8 16 21 21 16 13 16 19 20 19 16 16 15 10 8 4 4 9 15 16 10 8 5 10 13 7 13 10 12 5 7 6 5 13 18
27 28 28 27 7 6 12 6 6 6 6 14 18 14 23 16 18 18 24 20 12 17 12 11 16 5 11 15 17 12 2 4 6 11 9 7 3 12 11 9 3 11 4 9 13
28 29 26 12 15 8 5 3 6 6 6 15 15 6 16 23 14 22 24 20 19 14 13 12 18 10 16 17 10 6 3 9 6 11 14 11 8 11 9 9 8 9 4 5 3
28 30 27 3 8 13 8 7 6 8 10 10 10 14 19 22 23 20 20 22 17 17 14 13 14 15 17 16 9 10 8 11 13 11 12 6 4 8 11 9 5 4 8 6 4
32 28 18 9 3 2 7 9 8 10 8 10 13 17 21 19 25 15 24 23 18 18 18 19 16 12 10 9 14 13 15 12 12 11 10 15 3 4 14 10 5 4 8 7 7
32 18 12 17 7 10 10 9 11 9 17 5 3 15 21 22 25 22 22 21 25 21 14 14 17 20 18 16 14 18 18 14 7 9 7 12 5 4 14 8 4 5 7 7 10
26 6 11 9 18 10 8 13 14 15 5 3 7 12 18 22 19 23 24 23 24 25 21 13 19 12 25 14 20 18 17 16 16 15 12 7 5 14 11 9 6 7 6 8 11
13 11 15 10 12 14 10 18 17 2 4 9 15 13 15 21 19 24 21 22 23 25 22 17 16 17 13 8 15 17 17 12 12 16 17 13 10 6 16 12 9 9 7 8 12
7 5 8 11 13 9 13 19 20 6 6 9 10 6 12 13 21 20 23 18 19 18 20 20 18 11 17 12 17 13 16 17 18 13 13 13 11 6 16 15 12 11 10 9 9
8 8 9 15 10 12 14 21 7 13 8 13 7 11 10 11 9 21 19 19 16 14 16 20 14 16 16 14 19 21 18 20 15 19 12 15 12 9 10 11 9 15 10 7 9
4 5 9 14 8 14 19 16 8 11 16 11 14 11 3 9 8 13 19 12 11 10 12 12 18 17 16 16 14 10 15 16 16 15 17 12 5 11 9 7 8 13 13 9 8
4 5 6 9 13 15 14 17 16 13 17 13 13 13 10 11 10 6 14 7 4 12 5 7 15 15 15 15 5 20 18 18 18 14 15 16 15 13 13 14 13 11 10 11 7
5 3 6 5 12 15 17 11 17 14 11 10 14 17 16 15 15 14 11 13 9 7 8 13 16 18 21 20 5 11 10 10 13 16 17 17 16 4 13 12 13 10 10 10 9
5 5 6 12 10 11 11 12 14 13 9 11 15 15 14 18 17 14 15 14 14 12 15 17 17 15 14 13 14 13 15 13 15 13 15 16 16 15 12 13 14 11 9 9 8
13 10 5 7 11 10 12 16 13 13 7 11 9 5 11 10 13 15 15 15 11 17 16 17 14 14 13 17 20 17 11 15 16 16 14 15 13 10 16 7 11 11 11 10 8
Wind_Direction
5 359 353 349 344 340 336 335 332 330 326 328 328 326 321 316 312 280 248 166 212 209 202 232 250 267 247 271 268 103 273 104 63 73 101 142 108 85 91 117 81 18 125 137 151
3 359 354 349 349 344 338 332 328 325 323 324 324 324 320 321 305 257 230 236 224 202 211 216 211 207 252 261 186 101 246 92 18 73 80 108 79 113 152 131 120 110 111 140 156
0 356 352 349 346 343 339 333 327 322 319 320 321 322 317 326 275 94 186 207 183 195 245 266 261 260 270 239 142 296 48 107 126 59 50 110 134 139 144 158 134 138 139 154 163
356 353 350 347 343 342 339 332 324 318 315 316 318 318 316 283 307 85 156 184 192 211 251 253 263 263 269 282 283 276 61 25 103 117 191 72 109 114 66 67 116 135 152 162 170
354 349 345 344 341 337 334 330 323 314 308 311 314 315 320 241 265 125 168 182 205 219 237 212 246 238 248 272 210 254 59 159 144 120 19 152 105 109 105 108 113 134 156 167 177
350 345 341 339 335 333 330 325 319 310 303 303 306 308 261 263 49 154 170 184 209 211 206 241 289 346 293 262 241 65 263 227 189 116 168 197 125 180 117 130 126 146 162 171 179
346 342 337 335 330 329 326 321 314 305 297 293 290 291 266 264 214 181 189 199 203 217 217 271 299 277 342 239 261 270 233 191 177 156 152 229 155 115 134 144 145 157 167 171 180
343 340 335 333 328 326 321 317 309 299 294 280 258 253 268 148 216 195 193 200 199 219 285 293 264 276 250 283 251 231 238 271 139 181 124 203 118 127 155 158 160 162 167 173 180
341 339 333 332 329 322 321 316 301 296 284 215 221 231 263 157 204 199 194 187 188 209 220 283 261 265 244 235 216 200 114 234 146 248 150 137 126 127 173 162 166 172 172 178 180
341 337 333 331 328 321 320 313 274 238 230 243 264 263 232 219 190 179 191 207 195 200 212 240 240 244 216 236 229 250 211 126 146 169 237 242 99 152 167 196 168 183 181 184 184
340 337 333 331 327 322 321 281 214 204 214 236 213 223 143 134 161 183 186 204 200 208 224 194 248 225 225 129 259 269 237 94 69 111 230 181 125 317 136 191 177 170 183 194 193
340 336 332 331 323 313 288 251 32 344 282 221 246 241 231 189 191 192 185 206 202 214 200 186 240 244 335 316 254 208 224 133 140 183 236 148 195 159 99 101 62 184 179 193 195
340 336 333 330 318 284 241 279 302 324 260 252 221 222 211 207 222 185 192 206 202 226 177 222 235 34 193 254 249 204 233 148 178 164 241 231 228 172 146 194 154 139 166 191 194
338 337 335 331 299 319 259 202 282 291 272 206 200 224 211 203 226 207 197 204 212 222 197 208 242 178 219 259 244 225 184 271 239 246 229 243 150 178 144 154 154 84 53 179 191
335 334 329 332 301 265 41 255 299 233 265 133 165 154 193 200 197 209 191 214 219 202 230 201 233 167 239 241 245 71 205 238 265 271 272 223 247 119 162 167 104 72 59 53 313
332 330 324 322 234 251 290 272 241 232 246 159 163 196 200 201 231 179 198 222 223 236 205 246 272 202 219 231 273 316 254 230 237 249 267 187 262 168 138 115 82 68 56 45 23
329 322 295 268 211 269 249 241 225 243 103 182 185 187 203 190 211 187 192 201 214 217 219 212 211 233 239 226 232 272 253 234 219 215 236 109 208 345 116 110 98 41 52 42 34
324 308 278 233 258 250 239 224 245 245 240 82 261 184 205 200 206 184 202 206 213 219 216 210 215 212 205 216 240 216 242 262 257 268 286 108 228 168 99 120 109 98 65 43 43
328 282 224 254 215 214 227 223 218 249 340 274 199 240 204 214 199 204 212 210 207 222 227 215 230 225 209 193 216 246 255 272 297 301 284 283 159 147 157 145 149 90 76 76 82
319 276 241 182 183 201 225 240 241 248 321 248 258 203 220 207 201 206 207 218 215 208 231 243 259 191 173 216 235 231 272 236 234 259 278 279 255 161 160 160 152 148 111 107 99
269 237 116 174 184 214 221 232 236 210 240 264 265 277 264 218 209 221 215 215 218 225 212 233 248 218 175 195 226 202 238 251 276 276 268 253 239 165 164 150 180 132 136 125 108
282 235 142 167 197 218 224 236 277 241 205 251 251 280 292 285 249 219 221 227 184 233 230 223 241 233 241 211 228 244 241 218 239 235 256 276 283 128 128 164 165 131 140 109 98
273 281 158 203 225 228 222 246 250 234 241 230 232 245 272 258 241 254 246 231 154 192 242 230 226 247 235 240 209 234 249 264 272 263 254 276 260 107 136 154 158 141 143 141 125
273 235 164 208 255 285 245 216 233 223 259 255 257 264 256 252 243 257 242 123 194 216 44 286 241 227 243 242 269 214 215 241 247 252 253 246 258 167 183 175 152 153 149 137 128
237 285 22 195 222 235 259 255 227 218 206 233 237 242 246 244 249 213 240 202 209 180 218 231 243 254 258 268 174 275 237 231 245 269 272 277 271 76 175 185 157 163 161 152 149
317 343 352 283 296 280 231 241 250 236 217 219 226 265 222 237 254 249 225 237 195 183 226 214 231 251 264 261 263 252 261 251 266 272 259 277 288 312 316 167 151 164 179 167 143
359 299 271 283 252 240 242 235 241 253 240 243 290 265 261 252 288 275 304 297 243 202 204 231 232 239 240 246 249 237 251 266 264 256 262 264 276 4 322 136 149 173 176 170 154
Height
800 797 795 792 789 787 784 782 779 777 774 771 769 767 764 761 757 755 749 745 745 745 746 743 741 735 736 728 728 731 765 738 732 731 731 716 721 720 721 732 730 730 729 746 763
800 797 795 792 789 786 783 780 778 776 773 771 768 766 762 758 754 747 743 743 743 744 744 739 733 732 732 725 728 775 765 728 711 713 719 718 716 723 725 734 739 740 739 752 761
800 797 795 791 788 785 782 779 777 774 771 769 767 764 761 758 750 731 739 741 742 743 742 737 735 729 728 717 722 767 728 706 711 709 704 714 717 714 720 733 729 743 746 755 762
800 797 794 790 787 784 781 778 775 773 770 768 766 763 759 759 755 736 738 740 742 742 739 734 733 734 732 731 718 730 706 703 705 707 706 711 708 720 715 723 717 730 742 752 759
799 796 792 789 785 782 779 776 773 771 768 766 764 762 759 749 734 736 738 740 741 741 734 731 733 730 733 719 717 717 709 701 701 706 705 707 716 719 719 716 718 731 742 748 754
798 795 791 787 784 780 777 774 771 769 766 764 763 761 759 751 735 736 738 740 738 736 731 728 723 722 727 721 723 708 707 703 700 703 708 711 714 710 716 715 726 734 740 744 749
797 793 789 785 782 778 775 772 769 766 764 763 762 760 751 738 735 736 737 736 734 732 727 729 728 725 716 720 703 707 721 704 701 700 706 699 722 719 713 716 729 733 737 741 746
796 791 787 783 779 776 772 769 765 763 761 760 760 761 744 732 734 734 735 734 734 732 730 731 729 724 721 707 711 719 710 741 708 701 702 714 736 715 710 717 728 730 735 739 742
795 790 785 780 777 773 769 765 762 760 759 758 759 755 739 731 731 730 731 730 731 731 732 733 727 722 714 725 725 717 793 783 725 699 703 737 727 710 705 711 723 726 730 735 739
793 788 782 778 774 770 766 762 760 759 758 760 757 754 729 725 723 726 728 725 727 728 731 730 726 729 723 720 751 732 734 723 727 714 707 712 714 705 703 703 712 719 724 730 733
790 785 781 776 772 768 764 762 759 754 751 733 723 725 718 718 722 723 726 725 725 729 743 730 743 743 721 730 765 717 720 721 719 706 713 713 717 708 700 701 704 708 719 723 726
788 783 778 774 769 766 763 754 744 749 743 724 724 720 717 718 725 719 723 730 732 743 728 747 755 722 726 719 719 719 721 722 718 708 713 717 719 705 702 706 701 702 706 714 719
786 780 775 770 765 762 758 752 750 749 743 719 711 716 716 720 719 717 718 721 730 737 729 748 733 716 730 728 727 717 722 725 730 714 708 714 723 715 704 700 698 697 697 701 708
783 778 773 767 767 759 751 750 751 750 751 718 714 709 709 713 723 702 711 716 723 735 728 740 725 734 735 735 715 725 708 716 721 727 743 706 759 717 706 707 699 696 698 696 701
780 775 772 770 765 756 752 752 751 748 769 702 704 696 697 713 703 710 704 709 726 730 729 738 733 746 745 730 712 730 709 717 718 724 717 719 735 722 708 717 711 707 706 703 701
777 773 768 768 765 755 754 752 751 763 760 714 701 712 710 709 705 697 707 704 705 718 719 724 709 719 728 717 718 710 723 721 717 721 743 715 730 721 716 718 714 709 705 704 702
771 767 765 766 752 754 753 750 760 757 700 709 710 702 708 712 711 703 717 723 731 748 741 729 728 718 714 734 723 728 733 751 756 746 741 706 735 717 701 706 711 711 707 704 699
763 759 756 753 753 755 753 751 766 715 707 692 698 697 712 700 706 706 715 724 713 714 724 748 756 724 710 730 735 732 726 739 768 748 732 706 742 720 696 699 702 703 706 705 703
756 751 751 747 749 752 747 755 738 715 699 706 698 710 707 697 699 703 709 712 703 704 728 733 732 691 698 708 723 730 734 702 723 711 727 713 703 698 697 704 706 708 711 710 709
759 748 737 743 747 748 746 744 713 698 706 707 719 698 708 700 705 701 705 691 697 688 689 704 738 698 702 702 702 717 703 737 729 771 770 731 720 714 716 713 709 711 717 713 710
757 735 734 740 745 740 741 725 709 695 705 711 708 707 699 694 692 699 698 687 681 684 681 695 708 714 701 724 727 727 732 720 712 717 742 746 722 670 695 698 709 706 712 713 714
749 734 734 737 742 727 725 711 718 700 697 709 705 707 705 693 695 694 693 686 673 678 699 691 704 722 710 692 686 695 702 706 731 742 725 723 719 676 685 692 694 703 711 711 711
742 722 731 733 734 718 708 704 699 709 706 706 708 699 694 703 716 693 686 665 671 683 698 688 709 727 718 697 684 707 700 697 694 694 720 732 721 677 688 693 696 707 711 717 720
748 726 720 726 714 711 703 708 713 702 704 697 701 696 703 707 693 699 691 681 681 684 700 691 696 710 722 705 685 701 704 699 703 721 718 714 708 699 698 697 702 709 711 718 723
740 720 721 718 715 710 702 698 706 707 703 697 707 706 707 713 702 700 690 684 690 701 695 696 717 702 693 683 691 696 698 697 708 702 716 702 698 688 692 697 706 712 715 722 728
751 746 731 720 713 714 712 711 706 697 699 706 711 698 693 706 698 698 689 684 693 691 698 688 715 702 705 693 691 708 697 697 700 698 702 699 701 675 673 677 698 711 720 725 731
762 755 749 725 716 716 710 706 702 698 692 695 696 701 704 696 684 676 670 669 668 681 695 694 699 707 724 702 700 714 703 701 697 691 696 714 697 689 691 687 699 709 717 726 732